| time (UTC) | temp F | wind direction | speed knots | gust knots | rain 1hr in | rain 24hr in | rain mn in | humidity % | barometer mb |
| 20260906224412 | 88 | 102 | 0.0 | 1.7 | 0.00 | 0.00 | 0.00 | 21 | |
| 20260906223909 | 88 | 151 | 1.7 | 3.5 | 0.00 | 0.00 | 0.00 | 21 | |
| 20260906223404 | 87 | 60 | 1.7 | 3.5 | 0.00 | 0.00 | 0.00 | 20 | |
| 20260906222902 | 86 | 143 | 0.9 | 2.6 | 0.00 | 0.00 | 0.00 | 21 | |
| 20260906222402 | 87 | 189 | 1.7 | 2.6 | 0.00 | 0.00 | 0.00 | 20 | |
| 20260906221859 | 87 | 106 | 1.7 | 3.5 | 0.00 | 0.00 | 0.00 | 20 | |
| 20260906221354 | 89 | 102 | 3.5 | 5.2 | 0.00 | 0.00 | 0.00 | 19 | |
| 20260906220849 | 88 | 136 | 1.7 | 5.2 | 0.00 | 0.00 | 0.00 | 19 | |
| 20260906220345 | 87 | 159 | 2.6 | 8.7 | 0.00 | 0.00 | 0.00 | 19 | |
| 20260906215843 | 88 | 181 | 2.6 | 6.1 | 0.00 | 0.00 | 0.00 | 18 | |
| 20260906215338 | 89 | 134 | 0.9 | 6.1 | 0.00 | 0.00 | 0.00 | 18 | |
| 20260906214836 | 89 | 156 | 1.7 | 6.1 | 0.00 | 0.00 | 0.00 | 18 | |
| 20260906214331 | 90 | 90 | 0.9 | 2.6 | 0.00 | 0.00 | 0.00 | 18 | |
| 20260906213830 | 90 | 126 | 1.7 | 5.2 | 0.00 | 0.00 | 0.00 | 17 | |
| 20260906213325 | 89 | 129 | 2.6 | 5.2 | 0.00 | 0.00 | 0.00 | 17 | |
| 20260906212822 | 88 | 121 | 0.0 | 2.6 | 0.00 | 0.00 | 0.00 | 18 | |
| 20260906212318 | 90 | 117 | 4.3 | 6.1 | 0.00 | 0.00 | 0.00 | 18 | |
| 20260906211817 | 91 | 114 | 3.5 | 5.2 | 0.00 | 0.00 | 0.00 | 18 | |
| 20260906211313 | 91 | 180 | 2.6 | 7.0 | 0.00 | 0.00 | 0.00 | 18 | |
| 20260906210812 | 90 | 88 | 0.9 | 6.1 | 0.00 | 0.00 | 0.00 | 19 | |
| 20260906210307 | 90 | 99 | 1.7 | 7.0 | 0.00 | 0.00 | 0.00 | 19 | |
| 20260906205802 | 90 | 95 | 0.9 | 5.2 | 0.00 | 0.00 | 0.00 | 20 | |
| 20260906205259 | 89 | 98 | 1.7 | 2.6 | 0.00 | 0.00 | 0.00 | 20 | |
| 20260906204754 | 89 | 247 | 1.7 | 5.2 | 0.00 | 0.00 | 0.00 | 21 | |
| 20260906204253 | 87 | 109 | 0.9 | 2.6 | 0.00 | 0.00 | 0.00 | 22 | |
| 20260906203753 | 89 | 123 | 0.9 | 6.1 | 0.00 | 0.00 | 0.00 | 22 | |
| 20260906203249 | 89 | 105 | 0.9 | 5.2 | 0.00 | 0.00 | 0.00 | 22 | |
| 20260906202745 | 88 | 199 | 0.9 | 2.6 | 0.00 | 0.00 | 0.00 | 22 | |
| 20260906202244 | 88 | 156 | 1.7 | 2.6 | 0.00 | 0.00 | 0.00 | 22 | |
| 20260906201739 | 87 | 232 | 3.5 | 3.5 | 0.00 | 0.00 | 0.00 | 22 | |
| 20260906201238 | 87 | 153 | 3.5 | 3.5 | 0.00 | 0.00 | 0.00 | 23 | |
| 20260906200735 | 87 | 108 | 0.9 | 5.2 | 0.00 | 0.00 | 0.00 | 23 | |
| 20260906200230 | 87 | 138 | 0.9 | 2.6 | 0.00 | 0.00 | 0.00 | 23 | |
| 20260906195726 | 87 | 122 | 2.6 | 5.2 | 0.00 | 0.00 | 0.00 | 24 | |
| 20260906195222 | 86 | 115 | 0.0 | 1.7 | 0.00 | 0.00 | 0.00 | 25 | |
| 20260906194718 | 86 | 123 | 0.0 | 1.7 | 0.00 | 0.00 | 0.00 | 25 | |
| 20260906194213 | 85 | 109 | 0.9 | 2.6 | 0.00 | 0.00 | 0.00 | 25 | |
| 20260906193708 | 87 | 128 | 0.9 | 2.6 | 0.00 | 0.00 | 0.00 | 24 | |
| 20260906193208 | 86 | 92 | 0.9 | 1.7 | 0.00 | 0.00 | 0.00 | 25 | |
| 20260906192704 | 85 | 131 | 0.9 | 1.7 | 0.00 | 0.00 | 0.00 | 26 | |
| 20260906192158 | 84 | 139 | 1.7 | 3.5 | 0.00 | 0.00 | 0.00 | 26 | |
| 20260906191653 | 83 | 117 | 0.9 | 3.5 | 0.00 | 0.00 | 0.00 | 26 | |
| 20260906191152 | 81 | 96 | 0.9 | 0.9 | 0.00 | 0.00 | 0.00 | 27 | |
| 20260906190646 | 82 | 65 | 1.7 | 2.6 | 0.00 | 0.00 | 0.00 | 27 | |
| 20260906190141 | 83 | 110 | 0.9 | 0.9 | 0.00 | 0.00 | 0.00 | 27 | |
| 20260906185640 | 84 | 151 | 1.7 | 1.7 | 0.00 | 0.00 | 0.00 | 26 | |
| 20260906185139 | 84 | 188 | 0.9 | 0.9 | 0.00 | 0.00 | 0.00 | 26 | |
| 20260906184634 | 84 | 113 | 0.0 | 2.6 | 0.00 | 0.00 | 0.00 | 26 | |
| 20260906184130 | 83 | 101 | 1.7 | 3.5 | 0.00 | 0.00 | 0.00 | 27 | |
| 20260906183626 | 83 | 110 | 0.0 | 1.7 | 0.00 | 0.00 | 0.00 | 27 | |
| 20260906183121 | 81 | 172 | 1.7 | 1.7 | 0.00 | 0.00 | 0.00 | 28 | |
| 20260906182616 | 83 | 233 | 0.9 | 1.7 | 0.00 | 0.00 | 0.00 | 27 | |
| 20260906182112 | 82 | 150 | 2.6 | 3.5 | 0.00 | 0.00 | 0.00 | 29 | |
| 20260906181607 | 84 | 108 | 0.9 | 5.2 | 0.00 | 0.00 | 0.00 | 28 | |
| 20260906181103 | 83 | 132 | 0.0 | 2.6 | 0.00 | 0.00 | 0.00 | 29 | |
| 20260906180603 | 83 | 226 | 1.7 | 2.6 | 0.00 | 0.00 | 0.00 | 29 | |
| 20260906175601 | 83 | 159 | 1.7 | 3.5 | 0.00 | 0.00 | 0.00 | 30 | |
| 20260906175056 | 83 | 161 | 0.9 | 1.7 | 0.00 | 0.00 | 0.00 | 30 | |
| 20260906174549 | 83 | 106 | 0.0 | 2.6 | 0.00 | 0.00 | 0.00 | 30 | |
| 20260906174043 | 83 | 92 | 0.9 | 1.7 | 0.00 | 0.00 | 0.00 | 32 | |
| 20260906173538 | 82 | 123 | 0.9 | 1.7 | 0.00 | 0.00 | 0.00 | 31 | |
| 20260906173035 | 82 | 105 | 0.0 | 3.5 | 0.00 | 0.00 | 0.00 | 32 | |
| 20260906172529 | 82 | 95 | 0.9 | 3.5 | 0.00 | 0.00 | 0.00 | 31 | |
| 20260906172025 | 82 | 130 | 1.7 | 5.2 | 0.00 | 0.00 | 0.00 | 31 | |
| 20260906171519 | 82 | 144 | 1.7 | 2.6 | 0.00 | 0.00 | 0.00 | 31 | |
| 20260906171015 | 82 | 109 | 1.7 | 2.6 | 0.00 | 0.00 | 0.00 | 31 | |
| 20260906170511 | 81 | 128 | 1.7 | 3.5 | 0.00 | 0.00 | 0.00 | 31 | |
| 20260906170009 | 80 | 174 | 1.7 | 3.5 | 0.00 | 0.00 | 0.00 | 32 | |
| 20260906165507 | 79 | 113 | 0.9 | 2.6 | 0.00 | 0.00 | 0.00 | 33 | |
| 20260906165002 | 79 | 107 | 1.7 | 5.2 | 0.00 | 0.00 | 0.00 | 33 | |
| 20260906164500 | 78 | 156 | 0.9 | 3.5 | 0.00 | 0.00 | 0.00 | 34 | |
| 20260906163957 | 78 | 156 | 0.9 | 2.6 | 0.00 | 0.00 | 0.00 | 34 | |
| 20260906163452 | 77 | 141 | 0.9 | 2.6 | 0.00 | 0.00 | 0.00 | 34 | |
| 20260906162950 | 77 | 118 | 3.5 | 5.2 | 0.00 | 0.00 | 0.00 | 35 | |
| 20260906162449 | 78 | 144 | 0.9 | 3.5 | 0.00 | 0.00 | 0.00 | 32 | |
| 20260906161943 | 79 | 93 | 0.9 | 2.6 | 0.00 | 0.00 | 0.00 | 33 | |
| 20260906161438 | 77 | 110 | 0.9 | 2.6 | 0.00 | 0.00 | 0.00 | 34 | |
| 20260906160937 | 77 | 152 | 1.7 | 1.7 | 0.00 | 0.00 | 0.00 | 33 | |
| 20260906160436 | 77 | 134 | 1.7 | 2.6 | 0.00 | 0.00 | 0.00 | 34 | |
| 20260906155934 | 75 | 111 | 0.0 | 0.9 | 0.00 | 0.00 | 0.00 | 36 | |
| 20260906155428 | 75 | 151 | 1.7 | 2.6 | 0.00 | 0.00 | 0.00 | 36 | |
| 20260906154924 | 74 | 104 | 0.9 | 1.7 | 0.00 | 0.00 | 0.00 | 35 | |
| 20260906154419 | 75 | 98 | 0.0 | 0.9 | 0.00 | 0.00 | 0.00 | 35 | |
| 20260906153918 | 74 | 105 | 0.9 | 1.7 | 0.00 | 0.00 | 0.00 | 37 | |
| 20260906153417 | 73 | 156 | 0.9 | 1.7 | 0.00 | 0.00 | 0.00 | 37 | |
| 20260906152912 | 73 | 108 | 0.0 | 0.9 | 0.00 | 0.00 | 0.00 | 39 | |
| 20260906152407 | 73 | 120 | 0.0 | 1.7 | 0.00 | 0.00 | 0.00 | 37 | |
| 20260906151906 | 71 | 127 | 0.9 | 0.9 | 0.00 | 0.00 | 0.00 | 39 | |
| 20260906151402 | 69 | 103 | 0.0 | 0.0 | 0.00 | 0.00 | 0.00 | 41 | |
| 20260906150857 | 69 | 94 | 0.0 | 0.9 | 0.00 | 0.00 | 0.00 | 41 | |
| 20260906150352 | 68 | 97 | 0.0 | 0.9 | 0.00 | 0.00 | 0.00 | 41 | |
| 20260906145851 | 67 | 94 | 0.9 | 2.6 | 0.00 | 0.00 | 0.00 | 42 | |
| 20260906145350 | 66 | 103 | 0.0 | 1.7 | 0.00 | 0.00 | 0.00 | 44 | |
| 20260906144845 | 66 | 94 | 0.9 | 0.9 | 0.00 | 0.00 | 0.00 | 44 | |
| 20260906144340 | 66 | 94 | 0.0 | 1.7 | 0.00 | 0.00 | 0.00 | 45 | |
| 20260906143835 | 64 | 96 | 0.0 | 0.9 | 0.00 | 0.00 | 0.00 | 47 | |
| 20260906143331 | 63 | 92 | 0.0 | 0.9 | 0.00 | 0.00 | 0.00 | 48 | |
| 20260906142826 | 61 | 78 | 0.0 | 1.7 | 0.00 | 0.00 | 0.00 | 51 | |
| 20260906142321 | 61 | 109 | 0.9 | 0.9 | 0.00 | 0.00 | 0.00 | 51 | |
| 20260906141820 | 62 | 83 | 0.9 | 0.9 | 0.00 | 0.00 | 0.00 | 51 | |
| 20260906141315 | 62 | 99 | 0.0 | 0.9 | 0.00 | 0.00 | 0.00 | 50 | |
| 20260906140813 | 61 | 103 | 0.0 | 0.0 | 0.00 | 0.00 | 0.00 | 52 | |
| 20260906140309 | 61 | 102 | 0.0 | 0.9 | 0.00 | 0.00 | 0.00 | 53 | |
| 20260906135807 | 60 | 105 | 0.9 | 0.9 | 0.00 | 0.00 | 0.00 | 54 | |
| 20260906135305 | 59 | 107 | 0.9 | 0.9 | 0.00 | 0.00 | 0.00 | 55 | |
| 20260906134757 | 57 | 102 | 0.0 | 0.0 | 0.00 | 0.00 | 0.00 | 57 | |
| 20260906134252 | 57 | 100 | 0.0 | 0.0 | 0.00 | 0.00 | 0.00 | 60 | |
| 20260906133748 | 55 | 101 | 0.0 | 0.0 | 0.00 | 0.00 | 0.00 | 63 | |
| 20260906133243 | 52 | 94 | 0.0 | 0.9 | 0.00 | 0.00 | 0.00 | 67 | |
| 20260906132738 | 50 | 103 | 0.0 | 0.0 | 0.00 | 0.00 | 0.00 | 74 | |
| 20260906132234 | 48 | 104 | 0.0 | 0.0 | 0.00 | 0.00 | 0.00 | 77 | |
| 20260906131730 | 48 | 103 | 0.0 | 0.0 | 0.00 | 0.00 | 0.00 | 76 | |
| 20260906131224 | 48 | 102 | 0.0 | 0.0 | 0.00 | 0.00 | 0.00 | 76 | |
| 20260906130720 | 48 | 99 | 0.0 | 0.0 | 0.00 | 0.00 | 0.00 | 77 | |
| 20260906130215 | 47 | 90 | 0.0 | 0.0 | 0.00 | 0.00 | 0.00 | 79 | |
| 20260906125713 | 47 | 98 | 0.0 | 0.0 | 0.00 | 0.00 | 0.00 | 79 | |
| 20260906125211 | 47 | 101 | 0.0 | 0.0 | 0.00 | 0.00 | 0.00 | 78 | |
| 20260906124707 | 47 | 101 | 0.0 | 0.0 | 0.00 | 0.00 | 0.00 | 77 | |
| 20260906124202 | 48 | 94 | 0.0 | 0.0 | 0.00 | 0.00 | 0.00 | 77 | |
| 20260906123701 | 48 | 105 | 0.0 | 0.0 | 0.00 | 0.00 | 0.00 | 76 | |
| 20260906123156 | 48 | 107 | 0.0 | 0.0 | 0.00 | 0.00 | 0.00 | 75 | |
| 20260906122655 | 49 | 107 | 0.0 | 0.0 | 0.00 | 0.00 | 0.00 | 73 | |
| 20260906122151 | 50 | 104 | 0.0 | 0.0 | 0.00 | 0.00 | 0.00 | 72 | |
| 20260906121648 | 50 | 100 | 0.0 | 0.0 | 0.00 | 0.00 | 0.00 | 71 | |
| 20260906121143 | 51 | 108 | 0.0 | 0.0 | 0.00 | 0.00 | 0.00 | 69 | |
| 20260906120639 | 52 | 125 | 0.0 | 1.7 | 0.00 | 0.00 | 0.00 | 67 | |
| 20260906120136 | 53 | 105 | 0.0 | 0.0 | 0.00 | 0.00 | 0.00 | 64 | |
| 20260906115631 | 55 | 116 | 0.9 | 1.7 | 0.00 | 0.00 | 0.00 | 59 | |
| 20260906115126 | 55 | 85 | 0.0 | 1.7 | 0.00 | 0.00 | 0.00 | 59 | |
| 20260906114620 | 55 | 60 | 0.9 | 1.7 | 0.00 | 0.00 | 0.00 | 58 | |
| 20260906114115 | 55 | 353 | 1.7 | 3.5 | 0.00 | 0.00 | 0.00 | 58 | |
| 20260906113615 | 51 | 93 | 0.9 | 2.6 | 0.00 | 0.00 | 0.00 | 65 | |
| 20260906113110 | 50 | 90 | 0.0 | 1.7 | 0.00 | 0.00 | 0.00 | 71 | |
| 20260906112609 | 50 | 97 | 0.0 | 0.9 | 0.00 | 0.00 | 0.00 | 73 | |
| 20260906112106 | 50 | 103 | 0.0 | 0.9 | 0.00 | 0.00 | 0.00 | 73 | |
| 20260906111605 | 50 | 96 | 0.9 | 0.9 | 0.00 | 0.00 | 0.00 | 73 | |
| 20260906111101 | 50 | 93 | 0.9 | 0.9 | 0.00 | 0.00 | 0.00 | 73 | |
| 20260906110600 | 50 | 97 | 0.0 | 0.0 | 0.00 | 0.00 | 0.00 | 72 | |
| 20260906110059 | 50 | 102 | 0.0 | 0.0 | 0.00 | 0.00 | 0.00 | 73 | |
| 20260906105554 | 50 | 110 | 0.0 | 0.0 | 0.00 | 0.00 | 0.00 | 71 | |
| 20260906105050 | 50 | 108 | 0.0 | 0.9 | 0.00 | 0.00 | 0.00 | 70 | |
| 20260906104549 | 50 | 108 | 0.0 | 0.0 | 0.00 | 0.00 | 0.00 | 70 | |
| 20260906104043 | 51 | 106 | 0.0 | 0.0 | 0.00 | 0.00 | 0.00 | 69 | |
| 20260906103542 | 52 | 112 | 0.0 | 0.9 | 0.00 | 0.00 | 0.00 | 68 | |
| 20260906102537 | 53 | 96 | 0.0 | 0.0 | 0.00 | 0.00 | 0.00 | 65 | |
| 20260906102032 | 52 | 107 | 0.0 | 0.9 | 0.00 | 0.00 | 0.00 | 66 | |
| 20260906101527 | 51 | 102 | 0.0 | 0.0 | 0.00 | 0.00 | 0.00 | 70 | |
| 20260906101022 | 52 | 106 | 0.0 | 0.0 | 0.00 | 0.00 | 0.00 | 69 | |
| 20260906100518 | 51 | 85 | 0.9 | 0.9 | 0.00 | 0.00 | 0.00 | 70 | |
| 20260906100018 | 51 | 104 | 0.0 | 0.0 | 0.00 | 0.00 | 0.00 | 71 | |
| 20260906095513 | 51 | 105 | 0.0 | 0.0 | 0.00 | 0.00 | 0.00 | 71 | |
| 20260906095009 | 51 | 102 | 0.0 | 0.0 | 0.00 | 0.00 | 0.00 | 72 | |
| 20260906094507 | 51 | 100 | 0.0 | 0.0 | 0.00 | 0.00 | 0.00 | 71 | |
| 20260906094003 | 51 | 101 | 0.0 | 0.0 | 0.00 | 0.00 | 0.00 | 70 | |
| 20260906093459 | 51 | 105 | 0.0 | 0.0 | 0.00 | 0.00 | 0.00 | 71 | |
| 20260906092954 | 51 | 106 | 0.0 | 0.0 | 0.00 | 0.00 | 0.00 | 69 | |
| 20260906092453 | 52 | 103 | 0.0 | 0.0 | 0.00 | 0.00 | 0.00 | 69 | |
| 20260906091948 | 52 | 104 | 0.0 | 0.0 | 0.00 | 0.00 | 0.00 | 67 | |
| 20260906091444 | 53 | 103 | 0.0 | 0.0 | 0.00 | 0.00 | 0.00 | 67 | |
| 20260906090941 | 53 | 102 | 0.0 | 0.0 | 0.00 | 0.00 | 0.00 | 65 | |
| 20260906090435 | 53 | 102 | 0.0 | 0.0 | 0.00 | 0.00 | 0.00 | 64 | |
| 20260906085930 | 53 | 103 | 0.0 | 0.0 | 0.00 | 0.00 | 0.00 | 64 | |
| 20260906085429 | 54 | 106 | 0.0 | 0.0 | 0.00 | 0.00 | 0.00 | 63 | |
| 20260906084928 | 54 | 105 | 0.0 | 0.0 | 0.00 | 0.00 | 0.00 | 63 | |
| 20260906084423 | 54 | 101 | 0.0 | 0.0 | 0.00 | 0.00 | 0.00 | 64 | |
| 20260906083922 | 54 | 105 | 0.0 | 0.0 | 0.00 | 0.00 | 0.00 | 63 | |
| 20260906083418 | 54 | 107 | 0.0 | 0.0 | 0.00 | 0.00 | 0.00 | 62 | |
| 20260906082917 | 54 | 96 | 0.9 | 1.7 | 0.00 | 0.00 | 0.00 | 62 | |
| 20260906082413 | 54 | 104 | 0.0 | 0.0 | 0.00 | 0.00 | 0.00 | 63 | |
| 20260906081908 | 55 | 104 | 0.0 | 0.0 | 0.00 | 0.00 | 0.00 | 62 | |
| 20260906081404 | 55 | 106 | 0.0 | 0.0 | 0.00 | 0.00 | 0.00 | 60 | |
| 20260906080900 | 56 | 103 | 0.0 | 0.0 | 0.00 | 0.00 | 0.00 | 58 | |
| 20260906080356 | 57 | 106 | 0.0 | 0.0 | 0.00 | 0.00 | 0.00 | 57 | |
| 20260906075855 | 59 | 106 | 0.0 | 0.0 | 0.00 | 0.00 | 0.00 | 55 | |
| 20260906075350 | 59 | 88 | 0.0 | 0.9 | 0.00 | 0.00 | 0.00 | 53 | |
| 20260906074846 | 59 | 67 | 1.7 | 2.6 | 0.00 | 0.00 | 0.00 | 52 | |
| 20260906074340 | 59 | 119 | 0.9 | 0.9 | 0.00 | 0.00 | 0.00 | 53 | |
| 20260906073839 | 59 | 103 | 0.0 | 1.7 | 0.00 | 0.00 | 0.00 | 54 | |
| 20260906073334 | 58 | 111 | 0.0 | 0.9 | 0.00 | 0.00 | 0.00 | 54 | |
| 20260906072831 | 58 | 102 | 0.0 | 0.0 | 0.00 | 0.00 | 0.00 | 55 | |
| 20260906072326 | 59 | 103 | 0.0 | 0.0 | 0.00 | 0.00 | 0.00 | 54 | |
| 20260906071822 | 60 | 97 | 0.0 | 0.0 | 0.00 | 0.00 | 0.00 | 53 | |
| 20260906071321 | 60 | 97 | 0.0 | 0.9 | 0.00 | 0.00 | 0.00 | 53 | |
| 20260906070818 | 61 | 97 | 0.0 | 0.9 | 0.00 | 0.00 | 0.00 | 51 | |
| 20260906070313 | 61 | 99 | 0.0 | 1.7 | 0.00 | 0.00 | 0.00 | 50 | |
| 20260906065808 | 62 | 103 | 0.0 | 0.0 | 0.00 | 0.00 | 0.00 | 49 | |
| 20260906065305 | 63 | 63 | 0.9 | 1.7 | 0.00 | 0.00 | 0.00 | 47 | |
| 20260906064759 | 63 | 121 | 0.9 | 2.6 | 0.00 | 0.00 | 0.00 | 47 | |
| 20260906064255 | 63 | 100 | 0.0 | 2.6 | 0.00 | 0.00 | 0.00 | 47 | |
| 20260906063755 | 62 | 76 | 0.9 | 0.9 | 0.00 | 0.00 | 0.00 | 48 | |
| 20260906063251 | 61 | 134 | 0.9 | 1.7 | 0.00 | 0.00 | 0.00 | 50 | |
| 20260906062745 | 59 | 88 | 0.0 | 0.0 | 0.00 | 0.00 | 0.00 | 54 | |
| 20260906062244 | 58 | 97 | 0.0 | 0.0 | 0.00 | 0.00 | 0.00 | 58 | |
| 20260906061740 | 59 | 102 | 0.0 | 0.0 | 0.00 | 0.00 | 0.00 | 59 | |
| 20260906061237 | 59 | 98 | 0.0 | 0.9 | 0.00 | 0.00 | 0.00 | 58 | |
| 20260906060726 | 59 | 104 | 0.0 | 0.0 | 0.00 | 0.00 | 0.00 | 57 | |
| 20260906060224 | 58 | 88 | 0.0 | 1.7 | 0.00 | 0.00 | 0.00 | 56 | |
| 20260906055719 | 57 | 108 | 0.0 | 0.0 | 0.00 | 0.00 | 0.00 | 60 | |
| 20260906055215 | 57 | 105 | 0.0 | 0.0 | 0.00 | 0.00 | 0.00 | 62 | |
| 20260906054710 | 57 | 101 | 0.0 | 0.0 | 0.00 | 0.00 | 0.00 | 62 | |
| 20260906054210 | 57 | 105 | 0.0 | 0.0 | 0.00 | 0.00 | 0.00 | 61 | |
| 20260906053707 | 57 | 106 | 0.0 | 0.0 | 0.00 | 0.00 | 0.00 | 61 | |
| 20260906053201 | 57 | 108 | 0.0 | 0.9 | 0.00 | 0.00 | 0.00 | 60 | |
| 20260906052656 | 57 | 102 | 0.0 | 0.0 | 0.00 | 0.00 | 0.00 | 61 | |
| 20260906052153 | 57 | 109 | 0.0 | 0.0 | 0.00 | 0.00 | 0.00 | 61 | |
| 20260906051649 | 57 | 103 | 0.0 | 0.0 | 0.00 | 0.00 | 0.00 | 59 | |
| 20260906051149 | 57 | 98 | 0.0 | 0.0 | 0.00 | 0.00 | 0.00 | 58 | |
| 20260906050644 | 57 | 105 | 0.0 | 0.0 | 0.00 | 0.00 | 0.00 | 58 | |
| 20260906050139 | 58 | 106 | 0.0 | 0.0 | 0.00 | 0.00 | 0.00 | 57 | |
| 20260906045638 | 59 | 105 | 0.0 | 0.0 | 0.00 | 0.00 | 0.00 | 56 | |
| 20260906045133 | 59 | 104 | 0.0 | 0.0 | 0.00 | 0.00 | 0.00 | 56 | |
| 20260906044629 | 60 | 105 | 0.0 | 0.0 | 0.00 | 0.00 | 0.00 | 53 | |
| 20260906044124 | 60 | 100 | 0.0 | 0.0 | 0.00 | 0.00 | 0.00 | 52 | |
| 20260906043621 | 60 | 104 | 0.0 | 0.0 | 0.00 | 0.00 | 0.00 | 51 | |
| 20260906043116 | 61 | 101 | 0.0 | 0.0 | 0.00 | 0.00 | 0.00 | 51 | |
| 20260906042615 | 62 | 101 | 0.0 | 0.0 | 0.00 | 0.00 | 0.00 | 50 | |
| 20260906042109 | 62 | 104 | 0.0 | 0.0 | 0.00 | 0.00 | 0.00 | 50 | |
| 20260906041606 | 62 | 98 | 0.0 | 0.0 | 0.00 | 0.00 | 0.00 | 48 | |
| 20260906041100 | 63 | 104 | 0.0 | 0.0 | 0.00 | 0.00 | 0.00 | 47 | |
| 20260906040555 | 64 | 105 | 0.0 | 0.0 | 0.00 | 0.00 | 0.00 | 46 | |
| 20260906040046 | 65 | 104 | 0.0 | 0.0 | 0.00 | 0.00 | 0.00 | 45 | |
| 20260906035541 | 66 | 106 | 0.0 | 0.0 | 0.00 | 0.00 | 0.00 | 43 | |
| 20260906035037 | 67 | 92 | 0.9 | 1.7 | 0.00 | 0.00 | 0.00 | 42 | |
| 20260906034537 | 68 | 103 | 0.0 | 0.9 | 0.00 | 0.00 | 0.00 | 43 | |
| 20260906034032 | 68 | 100 | 0.9 | 0.9 | 0.00 | 0.00 | 0.00 | 42 | |
| 20260906033527 | 68 | 104 | 0.0 | 0.0 | 0.00 | 0.00 | 0.00 | 43 | |
| 20260906033022 | 68 | 106 | 0.0 | 0.0 | 0.00 | 0.00 | 0.00 | 41 | |
| 20260906032518 | 69 | 111 | 0.0 | 0.9 | 0.00 | 0.00 | 0.00 | 40 | |
| 20260906032013 | 69 | 103 | 0.0 | 0.0 | 0.00 | 0.00 | 0.00 | 40 | |
| 20260906031508 | 70 | 100 | 0.0 | 0.0 | 0.00 | 0.00 | 0.00 | 39 | |
| 20260906031003 | 70 | 100 | 0.0 | 0.0 | 0.00 | 0.00 | 0.00 | 38 | |
| 20260906030458 | 71 | 98 | 0.0 | 0.0 | 0.00 | 0.00 | 0.00 | 37 | |
| 20260906025958 | 72 | 106 | 0.0 | 0.0 | 0.00 | 0.00 | 0.00 | 36 | |
| 20260906025457 | 73 | 145 | 0.9 | 1.7 | 0.00 | 0.00 | 0.00 | 35 | |
| 20260906024956 | 73 | 98 | 0.9 | 1.7 | 0.00 | 0.00 | 0.00 | 34 | |
| 20260906024451 | 73 | 80 | 1.7 | 3.5 | 0.00 | 0.00 | 0.00 | 33 | |
| 20260906023950 | 72 | 97 | 0.0 | 0.9 | 0.00 | 0.00 | 0.00 | 34 | |
| 20260906023447 | 73 | 108 | 0.0 | 0.0 | 0.00 | 0.00 | 0.00 | 34 | |
| 20260906022947 | 73 | 86 | 0.0 | 0.0 | 0.00 | 0.00 | 0.00 | 34 | |
| 20260906022442 | 74 | 92 | 0.9 | 1.7 | 0.00 | 0.00 | 0.00 | 32 | |
| 20260906021937 | 74 | 101 | 0.0 | 0.0 | 0.00 | 0.00 | 0.00 | 33 | |
| 20260906021432 | 74 | 80 | 0.0 | 0.9 | 0.00 | 0.00 | 0.00 | 33 | |
| 20260906020932 | 75 | 299 | 2.6 | 2.6 | 0.00 | 0.00 | 0.00 | 32 | |
| 20260906020426 | 75 | 94 | 0.0 | 0.9 | 0.00 | 0.00 | 0.00 | 33 | |
| 20260906015921 | 75 | 97 | 0.0 | 0.9 | 0.00 | 0.00 | 0.00 | 32 | |
| 20260906015420 | 75 | 83 | 0.9 | 3.5 | 0.00 | 0.00 | 0.00 | 31 | |
| 20260906014914 | 75 | 127 | 0.0 | 2.6 | 0.00 | 0.00 | 0.00 | 31 | |
| 20260906014408 | 75 | 105 | 0.0 | 2.6 | 0.00 | 0.00 | 0.00 | 31 | |
| 20260906013905 | 75 | 107 | 1.7 | 5.2 | 0.00 | 0.00 | 0.00 | 31 | |
| 20260906013400 | 75 | 141 | 1.7 | 2.6 | 0.00 | 0.00 | 0.00 | 31 | |
| 20260906012856 | 76 | 79 | 0.0 | 0.9 | 0.00 | 0.00 | 0.00 | 31 | |
| 20260906012350 | 76 | 140 | 0.0 | 2.6 | 0.00 | 0.00 | 0.00 | 31 | |
| 20260906011850 | 76 | 106 | 1.7 | 3.5 | 0.00 | 0.00 | 0.00 | 31 | |
| 20260906011345 | 76 | 141 | 0.0 | 0.9 | 0.00 | 0.00 | 0.00 | 33 | |
| 20260906010841 | 77 | 104 | 0.0 | 0.0 | 0.00 | 0.00 | 0.00 | 32 | |
| 20260906010337 | 78 | 95 | 0.0 | 0.0 | 0.00 | 0.00 | 0.00 | 31 | |
| 20260906005832 | 79 | 98 | 0.0 | 0.0 | 0.00 | 0.00 | 0.00 | 30 | |
| 20260906005331 | 78 | 103 | 0.0 | 0.0 | 0.00 | 0.00 | 0.00 | 29 | |
| 20260906004830 | 77 | 102 | 0.0 | 0.0 | 0.00 | 0.00 | 0.00 | 29 | |
| 20260906004330 | 77 | 106 | 0.0 | 0.0 | 0.00 | 0.00 | 0.00 | 29 | |
| 20260906003825 | 78 | 115 | 0.0 | 1.7 | 0.00 | 0.00 | 0.00 | 28 | |
| 20260906003321 | 78 | 104 | 0.0 | 0.9 | 0.00 | 0.00 | 0.00 | 27 | |
| 20260906002816 | 78 | 105 | 0.0 | 1.7 | 0.00 | 0.00 | 0.00 | 27 | |
| 20260906002315 | 79 | 153 | 0.0 | 1.7 | 0.00 | 0.00 | 0.00 | 27 | |
| 20260906001811 | 79 | 147 | 0.9 | 2.6 | 0.00 | 0.00 | 0.00 | 27 | |
| 20260906001307 | 80 | 106 | 0.0 | 1.7 | 0.00 | 0.00 | 0.00 | 27 | |
| 20260906000807 | 80 | 109 | 0.9 | 1.7 | 0.00 | 0.00 | 0.00 | 26 | |
| 20260906000303 | 81 | 118 | 0.9 | 1.7 | 0.00 | 0.00 | 0.00 | 25 | |
| 20260905235756 | 81 | 81 | 1.7 | 3.5 | 0.00 | 0.00 | 0.00 | 24 | |
| 20260905235256 | 82 | 133 | 1.7 | 2.6 | 0.00 | 0.00 | 0.00 | 25 | |
| 20260905234752 | 82 | 98 | 0.9 | 1.7 | 0.00 | 0.00 | 0.00 | 25 | |
| 20260905234246 | 83 | 91 | 1.7 | 3.5 | 0.00 | 0.00 | 0.00 | 24 | |
| 20260905233743 | 83 | 121 | 1.7 | 2.6 | 0.00 | 0.00 | 0.00 | 24 | |
| 20260905233242 | 84 | 133 | 1.7 | 2.6 | 0.00 | 0.00 | 0.00 | 23 | |
| 20260905232741 | 85 | 193 | 0.9 | 2.6 | 0.00 | 0.00 | 0.00 | 23 | |
| 20260905232237 | 86 | 128 | 2.6 | 3.5 | 0.00 | 0.00 | 0.00 | 22 | |
| 20260905231733 | 87 | 108 | 1.7 | 2.6 | 0.00 | 0.00 | 0.00 | 22 | |
| 20260905231228 | 90 | 195 | 0.9 | 2.6 | 0.00 | 0.00 | 0.00 | 21 | |
| 20260905230725 | 90 | 168 | 1.7 | 2.6 | 0.00 | 0.00 | 0.00 | 21 | |
| 20260905230222 | 90 | 164 | 1.7 | 3.5 | 0.00 | 0.00 | 0.00 | 20 | |
| 20260905225722 | 89 | 112 | 0.0 | 1.7 | 0.00 | 0.00 | 0.00 | 21 | |
| 20260905225217 | 88 | 83 | 1.7 | 1.7 | 0.00 | 0.00 | 0.00 | 20 | |
| 20260905224716 | 87 | 101 | 0.9 | 0.9 | 0.00 | 0.00 | 0.00 | 21 |